Regional Weather Roundup
Issued by NWS

Home | Current Version | Previous Version | Text Only | Print | Product List | Glossary On
Versions: 1 2 3 4 5 6 7 8 9 10 11 12 13 14 15 16 17 18 19 20 21 22 23 24 25 26 27 28 29 30 31 32 33 34 35 36 37 38 39 40 41 42 43 44 45 46 47 48 49 50
000
ASUS43 KLSX 231307
RWRMO

WEATHER SUMMARY FOR MISSOURI
NATIONAL WEATHER SERVICE SPRINGFIELD MO
800 AM CDT WED JUL 23 2014

NOTE: "FAIR" INDICATES FEW OR NO CLOUDS BELOW 12,000 FEET WITH NO
       SIGNIFICANT WEATHER AND/OR OBSTRUCTIONS TO VISIBILITY.
       CURRENT SKY AND/OR WEATHER CONDITIONS ARE NOT AVAILABLE FOR
       CHILLICOTHE AND FARMINGTON.

MOZ001>031-035>038-043-044-053-054-231400-
...NORTHERN AND WESTERN MISSOURI...

CITY           SKY/WX    TMP DP  RH WIND       PRES   REMARKS
KANSAS CTY INT MOSUNNY   74  67  78 N9        30.16S
KANSAS C DTWN  SUNNY     77  66  68 NE8       30.14R
LEE`S SUMMIT   SUNNY     75  67  76 NE9       30.14R
ST JOSEPH      SUNNY     71  65  81 N7        30.17R
CHILLICOTHE      N/A     74  66  76 N6        30.15R
KIRKSVILLE     SUNNY     72  66  81 NE12      30.14R

$$
MOZ066>068-077>081-088>096-101>105-231400-
...SOUTHWEST MISSOURI...

CITY           SKY/WX    TMP DP  RH WIND       PRES   REMARKS
SPRINGFIELD    SUNNY     80  75  84 SW7       30.09S HAZE
JOPLIN         SUNNY     80  75  84 SW7       30.10R HAZE

$$
MOZ032>034-039>042-045>050-055>058-069>072-231400-
...CENTRAL MISSOURI...

CITY           SKY/WX    TMP DP  RH WIND       PRES   REMARKS
COLUMBIA       SUNNY     77  71  82 N9        30.09R
JEFFERSON CITY SUNNY     79  72  79 N7        30.07R
ROLLA          CLOUDY    78  75  90 N5        30.07R FOG
SEDALIA        SUNNY     77  69  76 N8        30.11S
WHITEMAN AFB   MOSUNNY   75  61  61 N8        30.11R
OSAGE BEACH    CLOUDY    79  73  83 N5        30.08R

$$
MOZ051-052-059>065-231400-
...EAST CENTRAL MISSOURI...

CITY           SKY/WX    TMP DP  RH WIND       PRES   REMARKS
ST LOUIS INTL  PTSUNNY   80  74  81 N7        30.05R
SPIRIT OF STL  CLOUDY    80  74  81 N7        30.04R
ST CHARLES     MOSUNNY   79  74  84 N9        30.04R

$$
MOZ072>076-082>087-097>100-106>115-231400-
...SOUTH CENTRAL AND SOUTHEAST MISSOURI...

CITY           SKY/WX    TMP DP  RH WIND       PRES   REMARKS
CAPE GIRARDEAU MOSUNNY   76  71  85 SW6       30.03S HAZE
FARMINGTON     MOSUNNY   75  70  83 CALM      30.07S
POPLAR BLUFF   MOSUNNY   75  69  81 CALM      30.03S HAZE
WEST PLAINS    MOSUNNY   76  71  85 W6        30.09R

$$


USA.gov is the U.S. government's official web portal to all federal, state and local government web resources and services.